Location: Asbacherhof
(48.8543°N, 10.7903°E)
Time: 21:40:59
(UTC+00:00)

CZ-4C R/B - Pass Details

Date: 26 May 2022
Orbit: 582 x 1419 km, 63.4° (Epoch: 29 June)

Event Time Altitude Azimuth Distance (km) Brightness Sun altitude
Rises 00:14:22 0° 315° (NW) 3,863 6.0 -18.8°
Reaches altitude 10° 00:16:59 10° 309° (NW) 3,019 5.3 -18.7°
Maximum altitude 00:23:50 43° 241° (WSW) 1,731 3.4 -18.3°
Enters shadow 00:28:00 26° 189° (S) 2,391 3.9 -18.1°
